Weather in Travyanskoye

Russia / Sverdlovsk Oblast     56°26′23″N   62°01′55″E
temp.,
°C
wind,
m/s
gust,
m/s
humid.,
%
clouds,
%
prec.,
mm/h
press.,
hPa
HPBL,
m
13 april, tue
tue1323:00+5nnw49880 0.0 1040190
02:00+3n22925 0.0 104033
05:00+2n22900 0.0 104110
08:00+4nw11830 0.0 104264
11:00+8ssw23650 0.0 1041505
14:00+11ssw44575 0.0 1039815
17:00+12ssw56645 0.0 1037882
20:00+10s37825 0.0 1036110
14 april, wed
wed1423:00+8ssw410905 0.0 1035208
02:00+7sw3693100 0.0 103399
05:00+7wsw3892100 0.0 1033124
08:00+9wsw398899 0.0 1033278
11:00+14w467155 0.0 1031511
14:00+18w455832 0.0 10301058
17:00+19w465424 0.0 10281482
20:00+14w337243 0.0 102730
15 april, thu
thu1523:00+12w337967 0.0 102737
02:00+10w338516 0.0 102723
05:00+9wsw22865 0.0 102617
08:00+11wsw24835 0.0 1025113
11:00+16sw34645 0.0 1024535
14:00+19wsw46465 0.0 10211427
17:00+20wsw46395 0.0 10191725
20:00+14w35575 0.0 101866
16 april, fri
fri1623:00+11wnw4762100 0.0 1018106
02:00+9w3671100 0.0 101788
05:00+7wnw357781 0.0 101671
08:00+9n477687 0.0 1016289
11:00+7nne6888100 0.0 1017580
14:00+4nne6993100 0.0 1019533
17:00+3nne51097100 0.6 1019530
20:00+2ne41098100 1.5 1019415
17 april, sat
sat1723:00+2nne51097100 2.1 1019445
02:000nne48895 0.1 1019336
05:00−2nne37865 0.1 1018241
08:000nne45695 0.0 1018464
11:00+2nne4552100 0.0 10161059
14:00+4ne344699 0.0 10151398
17:00+4ne5546100 0.0 10151533
20:00+2ne5856100 0.0 1016499